This is the latest recevied weather packets stored in our database for station/object OE6JUE. If no packets are shown the sender has not sent any weather packets the latest 10 day(s).
| Time | Temp. | Humidity | Pressure | Rain* | Wind** | Luminosity | Snow |
|---|---|---|---|---|---|---|---|
| 1777795575 | 20.56° C | 40% | 1020.7 hPa | 0 mm | - | - | - |
| 1777795275 | 20.56° C | 40% | 1020.8 hPa | - | - | - | - |
| 1777794975 | 20.56° C | 40% | 1020.8 hPa | 0 mm | - | - | - |
| 1777794675 | 20° C | 40% | 1020.8 hPa | 0 mm | - | - | - |
| 1777794375 | 20° C | 41% | 1020.6 hPa | 0 mm | - | - | - |
| 1777794075 | 19.44° C | 40% | 1020.7 hPa | 0 mm | - | - | - |
| 1777793774 | 19.44° C | 40% | 1020.6 hPa | 0 mm | - | - | - |
| 1777793475 | 19.44° C | 40% | 1020.6 hPa | 0 mm | - | - | - |
| 1777793174 | 20° C | 40% | 1020.7 hPa | 0 mm | - | - | - |
| 1777792875 | 19.44° C | 40% | 1020.6 hPa | 0 mm | - | - | - |
| 1777792574 | 20° C | 40% | 1020.7 hPa | 0 mm | - | - | - |
| 1777792157 | 20° C | 41% | 1020.5 hPa | 0 mm | - | - | - |
| 1777791858 | 19.44° C | 41% | 1020.5 hPa | 0 mm | - | - | - |
| 1777791558 | 19.44° C | 42% | 1020.7 hPa | 0 mm | - | - | - |
| 1777791258 | 19.44° C | 43% | 1020.5 hPa | 0 mm | - | - | - |
| 1777790958 | 18.89° C | 44% | 1020.6 hPa | 0 mm | - | - | - |
| 1777790357 | 18.89° C | 45% | 1020.3 hPa | 0 mm | - | - | - |
| 1777790058 | 18.33° C | 44% | 1020.4 hPa | 0 mm | - | - | - |
| 1777789757 | 18.33° C | 44% | 1020.4 hPa | 0 mm | - | - | - |
| 1777789458 | 17.78° C | 45% | 1020.4 hPa | 0 mm | - | - | - |
| 1777789157 | 17.78° C | 43% | 1020.2 hPa | 0 mm | - | - | - |
| 1777788857 | 17.78° C | 44% | 1020.4 hPa | 0 mm | - | - | - |
| 1777788558 | 17.78° C | 44% | 1020.1 hPa | 0 mm | - | - | - |
| 1777788258 | 17.78° C | 45% | 1020.1 hPa | 0 mm | - | - | - |
| 1777787957 | 17.78° C | 45% | 1020 hPa | 0 mm | - | - | - |
* Rain latest hour (hover to see other rain measurements)
** Current wind speed in m/s (hover to see current wind gust speed)